Theta_e
308 308 309 309 309 310 310 310 311 311 311 311 311 312 314 315 316 324 326 320 319 318 323 326 325 325 329 342 340 341 346 345 341 340 340 340 342 341 344 348 348 347 349 351 353
308 308 309 309 309 310 310 311 311 311 311 311 312 311 313 315 327 329 325 322 314 315 330 325 324 326 336 341 340 341 344 341 339 337 338 338 338 340 344 347 350 350 351 353 353
308 308 309 309 309 310 310 311 311 311 311 312 312 311 313 319 336 335 325 320 314 324 326 325 326 330 336 340 340 342 340 337 335 335 335 337 339 340 341 344 348 351 355 355 354
306 307 308 309 309 309 310 311 311 311 311 313 314 312 313 329 338 334 316 317 319 326 324 327 328 329 334 340 338 339 337 335 334 334 334 335 336 339 340 344 346 348 353 356 355
305 306 307 308 308 309 309 310 311 311 313 316 316 312 322 333 333 330 317 318 325 322 325 328 327 329 333 337 336 338 336 336 336 336 337 335 337 337 338 342 346 348 353 356 355
305 305 306 307 308 308 309 310 310 312 316 320 317 312 330 327 331 328 325 326 324 323 327 327 329 330 332 333 336 336 336 337 336 337 336 336 337 338 343 344 345 349 353 354 355
305 305 306 306 307 308 308 309 310 313 318 323 315 319 325 325 331 329 324 325 323 323 328 329 328 328 331 333 334 334 337 337 336 336 335 335 337 340 340 346 346 349 352 353 355
305 305 305 306 306 307 308 309 310 316 321 321 315 327 326 324 328 327 326 325 323 322 328 328 328 328 329 331 332 335 335 335 337 335 335 333 339 338 343 346 348 351 352 353 356
304 305 305 306 306 307 307 309 314 319 321 319 330 328 328 321 325 329 326 326 323 324 327 327 328 329 329 327 328 330 331 334 333 334 333 332 334 338 344 347 349 354 353 356 359
304 305 305 306 306 307 307 313 319 321 327 327 327 329 325 323 324 328 327 323 323 325 327 328 328 328 327 328 327 328 328 328 330 332 333 331 333 333 339 345 350 355 356 358 360
304 305 306 306 306 307 312 322 330 330 328 327 328 323 324 327 325 326 326 324 326 325 328 329 328 326 328 329 329 330 328 328 329 330 331 332 333 332 337 340 348 355 360 358 360
304 305 306 306 306 308 314 324 321 320 323 324 323 324 324 327 326 326 325 326 326 327 328 329 326 328 328 327 327 327 328 329 330 332 331 331 332 332 334 340 344 352 360 358 359
304 305 306 306 307 312 320 321 318 319 323 324 323 322 323 326 327 328 326 327 328 328 329 328 329 328 327 326 327 327 328 329 330 332 331 330 333 332 334 339 344 346 353 356 359
303 304 306 306 311 314 319 319 318 319 325 324 322 322 323 325 327 329 326 329 330 330 329 328 328 327 327 327 328 329 330 329 329 330 331 332 330 334 334 337 344 346 348 353 358
303 305 306 305 311 315 320 317 318 320 326 324 322 323 324 324 327 327 328 330 332 331 331 330 328 328 327 327 328 330 332 329 330 331 331 331 331 332 334 332 339 339 347 348 356
304 307 306 313 314 314 314 316 320 324 323 324 324 322 323 324 326 328 330 330 331 331 330 331 329 329 328 329 329 330 330 330 331 331 330 331 332 330 335 338 336 341 346 348 352
307 308 305 310 316 313 314 319 323 324 324 324 324 324 324 324 325 329 331 332 332 333 332 330 330 328 329 329 330 330 330 332 332 334 332 334 332 331 333 334 336 339 346 349 350
310 307 311 309 313 313 316 322 325 323 323 324 324 324 324 324 326 328 331 332 330 330 331 332 330 330 330 329 330 331 331 331 333 332 336 333 332 337 335 335 339 342 345 348 349
310 314 313 314 312 313 320 323 324 324 322 322 323 324 325 325 326 328 330 331 331 330 333 330 330 329 328 328 328 330 331 330 330 331 332 331 331 333 334 336 340 343 345 348 348
310 314 316 315 314 314 320 322 323 320 320 321 324 325 326 325 324 328 329 329 330 330 330 331 332 330 328 328 328 329 331 332 331 333 334 334 335 335 338 339 343 344 346 346 347
314 318 315 312 313 317 318 321 322 319 319 320 321 325 326 326 325 326 328 327 328 330 329 329 330 329 328 329 329 331 331 331 330 333 337 339 339 337 336 337 343 342 345 347 348
318 318 314 313 315 317 318 320 315 319 318 319 321 322 324 325 325 326 327 328 326 327 328 328 330 331 330 329 328 328 331 332 333 335 334 335 336 336 334 337 336 342 345 352 353
322 318 314 315 316 318 319 319 318 319 319 319 319 322 323 324 326 325 326 324 323 326 329 329 329 332 332 329 329 328 327 330 333 336 340 341 337 337 337 337 340 343 347 355 354
322 318 316 315 318 321 320 320 318 317 318 318 319 321 323 324 326 326 325 323 322 325 338 333 330 331 330 332 332 331 329 329 331 335 334 332 335 339 337 338 347 346 349 356 357
320 322 320 317 318 319 320 319 318 320 319 320 320 320 321 324 324 325 324 323 322 328 327 330 333 332 331 328 328 329 329 330 330 332 334 335 340 340 343 343 348 349 355 356 358
320 321 316 320 322 320 318 321 320 319 322 320 320 320 319 321 323 324 325 325 325 326 327 330 335 333 333 330 328 328 328 328 330 331 333 334 338 336 344 346 344 352 356 356 355
312 316 320 317 318 320 321 320 321 320 322 324 323 322 323 324 325 328 330 332 332 332 330 333 334 333 335 330 328 331 330 328 329 332 333 334 336 340 340 347 348 351 356 355 353
Wind_Speed
12 11 12 13 13 13 14 15 15 16 17 18 17 16 16 15 12 4 6 2 3 8 3 4 8 10 10 11 9 12 5 6 5 9 8 7 4 7 3 8 2 3 9 15 19
11 12 12 12 13 14 15 15 16 17 17 18 18 17 17 18 8 11 2 6 7 7 6 7 6 8 11 7 5 9 13 14 13 7 8 4 4 4 5 11 6 7 9 18 20
12 12 13 13 14 14 15 16 17 17 18 18 18 15 16 13 8 7 2 5 7 8 7 7 6 9 11 7 4 11 9 7 7 7 5 7 2 3 3 6 15 11 13 16 18
13 13 13 14 15 15 16 16 18 18 19 18 17 14 16 4 1 5 4 8 9 4 6 5 8 10 10 9 3 10 6 3 6 3 5 8 7 6 2 8 7 9 16 16 16
15 15 15 15 16 16 17 17 18 19 20 17 13 11 6 8 6 2 5 9 5 4 7 6 8 8 10 2 5 9 3 3 3 5 7 8 11 5 7 4 8 11 14 17 15
15 16 16 16 16 17 18 18 19 20 19 14 9 8 5 9 3 6 7 6 4 6 3 7 2 5 7 6 9 5 6 8 8 3 6 8 9 1 7 2 10 9 12 14 15
15 16 17 17 17 18 18 19 19 19 16 11 5 4 9 2 3 7 8 3 3 6 4 1 3 9 2 10 4 10 11 14 12 4 6 12 18 5 4 3 7 10 11 11 15
16 17 18 17 17 18 19 20 18 17 12 7 2 4 7 3 4 7 7 5 5 5 4 3 6 11 9 6 11 13 16 14 10 1 5 12 7 8 3 7 8 9 10 12 14
17 18 18 16 18 18 18 17 15 10 6 2 4 6 5 4 10 11 9 6 6 6 3 5 11 12 6 12 14 15 13 18 5 6 4 7 10 11 1 3 9 9 10 13 13
18 18 18 17 17 18 16 15 10 6 5 6 8 7 7 7 12 10 8 6 7 7 7 9 8 10 11 10 11 7 12 7 4 4 3 12 8 7 7 4 6 10 10 12 13
18 19 19 17 17 16 10 6 6 7 12 10 1 6 4 5 7 11 11 10 8 8 12 9 10 12 10 4 11 9 7 8 7 2 6 15 5 13 5 6 7 9 9 11 12
19 19 19 17 17 9 8 7 8 6 9 15 12 7 4 7 8 12 14 11 9 12 11 6 13 1 2 6 8 8 9 10 4 1 8 12 11 10 3 2 4 10 9 12 11
20 20 20 15 11 4 8 5 6 7 7 11 11 14 11 11 11 16 16 15 10 13 10 16 9 3 7 9 10 11 10 6 8 4 14 11 18 12 8 5 5 6 11 12 13
20 20 19 15 4 4 7 1 6 4 6 14 10 9 15 11 11 11 19 11 9 11 10 11 4 5 9 10 8 15 6 4 9 10 9 2 11 12 10 9 9 7 7 11 14
21 20 16 12 12 7 4 4 5 4 7 13 11 9 11 14 12 13 18 12 12 9 5 5 7 9 9 8 5 3 3 7 9 11 12 11 7 3 8 5 7 5 10 7 12
21 19 13 4 7 8 5 5 5 7 9 9 10 13 16 20 10 13 15 13 9 10 11 12 1 7 12 6 8 4 8 12 12 13 12 13 4 11 5 9 3 5 8 10 13
22 15 10 7 0 3 6 8 7 10 6 10 12 17 19 15 16 13 18 17 11 11 13 14 13 10 7 9 10 10 11 10 11 11 9 8 5 9 7 6 2 3 10 13 14
19 11 7 11 6 5 8 8 11 13 8 4 3 13 17 18 18 17 17 17 20 14 11 11 14 17 11 14 10 11 12 11 15 10 5 6 3 3 6 2 3 3 10 14 14
11 4 8 5 8 7 7 11 11 9 4 7 7 12 14 15 11 17 18 19 18 17 12 8 6 8 4 7 11 14 11 15 17 18 12 14 7 8 8 2 5 7 10 14 14
7 8 7 5 7 10 9 18 8 5 2 8 11 11 13 13 12 17 17 17 18 16 15 3 6 10 10 7 9 12 9 9 9 15 16 8 5 4 9 8 11 7 11 12 12
6 5 5 6 10 8 12 19 16 4 6 5 10 5 11 12 16 15 12 4 13 15 13 15 6 7 7 11 14 9 11 12 16 10 10 4 6 10 5 7 12 8 11 12 12
8 4 6 9 8 11 13 16 4 7 9 8 4 7 4 6 9 12 16 9 5 8 17 16 8 10 14 10 6 11 12 12 9 13 11 11 4 20 8 9 4 9 12 13 13
4 2 5 10 8 10 13 7 3 13 10 9 9 5 3 5 6 9 8 12 4 9 4 10 7 10 13 11 13 11 14 13 9 12 11 12 2 9 10 1 4 10 13 12 13
5 5 4 7 9 9 15 11 12 7 10 8 6 2 7 8 5 6 7 5 4 9 9 5 11 11 14 4 12 14 14 13 13 12 13 16 13 12 17 11 7 9 13 13 13
4 2 5 7 10 11 6 7 16 10 13 10 9 11 10 8 10 7 12 9 9 5 5 9 12 14 17 18 12 11 12 14 13 15 17 10 6 17 6 7 10 10 13 14 15
6 5 3 3 4 7 7 11 12 14 7 10 14 13 11 9 10 10 11 9 10 12 13 10 8 13 16 15 14 13 12 14 16 13 18 22 5 29 7 8 4 8 14 14 15
9 6 6 6 8 9 9 10 10 4 7 10 10 13 8 6 9 9 11 6 7 7 6 8 10 11 13 17 20 14 15 15 16 14 16 12 7 8 7 9 3 6 11 14 14
Wind_Direction
14 17 12 5 6 4 359 355 354 353 349 347 346 349 348 333 315 287 256 106 229 235 259 254 236 253 249 259 253 251 246 128 94 60 78 82 35 103 43 118 74 86 58 113 139
12 3 2 1 356 355 352 346 347 345 344 340 340 343 343 333 298 242 163 258 235 186 242 229 220 224 234 251 251 259 297 65 43 50 23 72 3 38 227 118 142 123 112 126 147
8 359 352 352 349 346 342 340 340 337 337 335 333 338 338 336 268 76 331 182 172 173 264 260 260 249 251 252 222 275 90 87 100 42 357 332 270 126 272 227 136 159 147 150 154
7 358 351 344 342 338 335 334 333 330 332 330 328 333 330 278 10 50 114 134 147 219 235 234 230 224 239 214 201 270 50 29 50 348 323 333 336 304 150 57 72 139 156 160 165
5 358 350 341 335 331 328 327 327 328 327 328 326 334 336 237 67 100 125 151 184 229 228 238 228 244 235 235 231 258 102 245 243 281 325 315 270 333 299 67 113 135 162 167 171
359 353 349 340 332 326 324 323 324 325 326 329 323 334 275 259 86 149 153 169 232 222 183 236 312 325 310 257 258 51 276 274 265 259 266 294 292 185 100 67 142 160 176 173 171
352 350 345 338 331 323 321 319 323 324 326 328 323 342 267 331 142 166 174 216 199 253 198 278 297 243 15 241 242 263 261 250 225 256 293 310 245 66 24 157 145 174 179 176 166
348 345 342 336 330 321 319 318 321 323 323 339 325 280 284 127 178 183 187 183 211 204 293 246 267 276 256 313 258 241 244 255 178 349 103 290 86 74 136 169 150 163 170 164 163
344 340 339 333 327 318 317 314 313 303 317 7 283 245 251 132 194 193 191 216 188 198 211 259 259 261 228 242 243 217 249 225 130 104 327 266 328 112 150 146 143 162 164 164 164
340 337 332 330 325 318 315 308 297 277 292 255 266 260 219 220 172 179 185 212 195 193 217 238 238 240 214 238 251 298 204 242 255 186 227 267 264 328 123 232 170 154 176 173 174
339 335 329 328 325 319 316 289 221 198 224 253 84 264 145 135 160 192 184 199 217 215 230 208 249 221 231 315 350 317 303 299 300 87 269 274 294 278 84 238 182 167 184 184 178
337 332 329 326 323 310 295 271 43 339 293 215 246 265 263 208 183 190 188 204 198 219 220 200 234 18 61 283 274 264 267 261 262 15 258 275 279 288 160 212 229 183 182 197 174
335 331 328 326 318 269 277 14 334 319 260 205 218 221 194 210 221 186 197 216 203 223 198 257 67 79 228 230 252 242 268 298 292 302 261 252 262 235 175 164 209 245 172 198 171
335 331 329 325 278 311 239 313 327 308 266 168 195 211 194 218 229 189 198 206 217 245 216 253 189 219 219 248 244 280 140 281 271 272 290 202 298 193 166 183 177 207 201 188 158
332 328 323 319 310 235 42 306 320 252 259 139 134 119 192 204 131 189 186 207 245 203 228 187 217 208 231 246 230 316 328 282 289 276 277 269 239 213 181 235 119 185 165 182 156
330 325 317 275 239 264 291 287 251 227 239 160 151 185 184 207 176 145 183 223 241 249 221 274 247 213 231 216 243 347 266 256 258 259 257 240 278 294 55 43 61 133 144 150 154
328 314 288 263 103 289 275 237 222 236 134 159 184 176 192 186 199 188 187 197 204 202 213 212 207 214 246 228 206 239 262 261 242 231 246 112 224 292 21 61 327 341 140 150 148
327 304 274 224 257 277 239 224 242 213 196 54 235 196 199 180 202 192 193 208 222 220 274 212 203 201 186 239 251 212 252 271 292 284 14 171 267 83 53 96 157 137 141 151 148
327 259 227 227 224 224 229 222 219 238 70 209 176 216 206 191 211 197 207 213 208 225 240 216 228 132 201 220 231 238 253 267 278 269 265 281 252 190 143 159 125 157 150 159 150
315 237 166 229 207 210 228 239 233 16 321 275 217 206 197 200 195 194 200 217 218 199 238 317 252 179 178 232 236 267 307 237 231 267 279 263 341 158 160 166 120 140 160 156 151
250 225 116 162 181 215 220 228 230 160 253 234 260 199 250 186 202 196 223 121 232 183 220 238 224 169 166 221 249 183 234 250 282 289 304 230 263 4 106 109 135 148 159 161 162
283 229 143 178 201 218 223 237 32 223 220 244 290 274 266 217 225 261 226 194 196 234 201 222 223 251 229 246 225 291 292 226 251 231 269 289 171 226 148 128 200 160 167 163 164
270 42 176 217 220 213 223 254 193 227 222 214 227 251 219 228 263 243 238 83 167 243 231 207 228 240 244 246 200 243 244 251 267 278 262 281 18 42 26 160 163 152 163 162 157
276 192 152 211 276 295 216 222 205 245 258 239 258 224 206 220 214 209 238 139 211 257 21 3 253 247 262 96 275 196 243 239 230 243 245 239 264 187 201 141 147 165 161 163 166
246 349 2 195 216 228 272 227 217 185 239 206 213 232 217 224 200 224 228 169 213 126 220 233 247 259 259 278 275 265 251 221 230 239 254 273 66 321 38 78 146 172 159 175 171
313 330 203 328 343 239 158 220 240 224 197 214 240 209 228 237 235 221 210 227 226 182 229 226 243 259 277 268 260 257 247 261 274 236 247 259 209 186 135 92 135 170 168 185 177
354 265 276 121 200 233 190 215 233 260 188 299 212 241 214 231 315 23 329 345 343 304 245 236 240 248 256 252 248 232 242 257 251 245 250 267 292 6 113 96 113 178 176 185 185